星链-1588 (STARLINK-1588 )

导读 | 星芒AI

STARLINK-1588 是 SpaceX Starlink 项目中的一颗低轨通信卫星,属于第 5 批组网卫星(v1.5 版本)。该卫星于 2021 年 11 月 18 日由猎鹰 9 号火箭成功送入近地轨道,旨在为全球提供高速互联网服务。它运行在约 550 公里的高度,具备先进通信设备,支持 Ku 和 Ka 频段,具有高带宽和低延迟特性。该卫星是 Starlink 网络的重要组成部分,助力实现全球互联网覆盖目标。

基本信息
目录编号:
46118
目录名称:
STARLINK-1588
国际标识:
2020-057B
轨道中心:
EARTH
卫星名称:
星链-1588
卫星全名:
星链-1588 (STARLINK-1588 )
卫星状态:
已陨落 最后检测时间 2025-06-01
发射日期:
2020-08-18 UTC
国别 :
美国 (US)
星等 :
--
轨道信息
数据来源 国际轨道数据
星历时间: 2025-06-01T05:24:49+0800
轨道信息已过期198天
半长轴: 6510.802km
偏心率: 0.0007738
轨道倾角: 53.024°
近地点辐角 328.088°
升交点赤经 100.903°
平近点角 140.606°
近地点: 127.628km
远地点: 137.706km
周期: 87.139分钟
每日圈数: 16.525366
详细信息
固有亮度:
5
最大亮度:
2.5
卫星平台:
Starlink V1.0
覆盖范围:
全球
运营商:
太空探索技术公司
运营商所在国:
美国
制造商(研发单位):
太空探索技术公司
制造商所在国:
美国
使用方式:
暂无
卫星简介
星链(Starlink)计划是由太空探索技术公司(SpaceX)提出的一个巨型低轨卫星互联网星座项目,计划在2019年至2024年间在太空搭建由约1.2万颗卫星组成的“星链”网络,其中1584颗将部署在地球上空550千米处的近地轨道,并从2020年开始工作。该卫星仍在工作。